When you browse on this site, cookies collect data to enhance your experience and personalize the content and advertising you see.
Visit our Privacy Policy to learn more. By continuing to use the site, you agree to this use of cookies and data.
  • In Portugal
  • List of Countries
  • For 7 days
  • Water Temperature
  • Satellite Maps
  • Weather Map
  • Weather Widgets
  • user-avatar
    Login

    Hourly Weather Hampi

    Today, 19 January, Saturday

    Time Temperature Precipitation Wind Pressure Humidity
    00:00 +24°C° 0 mm 2 mps 716 mmHg 43%
    01:00 +23°C° 0 mm 2 mps 716 mmHg 46%
    02:00 +22°C° 0 mm 3 mps 716 mmHg 50%
    03:00 +22°C° 0 mm 3 mps 716 mmHg 54%
    04:00 +21°C° 0 mm 3 mps 716 mmHg 57%
    05:00 +21°C° 0 mm 3 mps 716 mmHg 61%
    06:00 +22°C° 0 mm 3 mps 717 mmHg 59%
    07:00 +22°C° 0 mm 3 mps 717 mmHg 56%
    08:00 +24°C° 0 mm 3 mps 718 mmHg 53%
    09:00 +26°C° 0 mm 4 mps 718 mmHg 46%
    10:00 +28°C° 0 mm 4 mps 718 mmHg 39%
    11:00 +30°C° 0 mm 5 mps 718 mmHg 32%
    12:00 +32°C° 0 mm 5 mps 717 mmHg 29%
    13:00 +33°C° 0 mm 5 mps 717 mmHg 26%
    14:00 +33°C° 0 mm 5 mps 716 mmHg 24%
    15:00 +33°C° 0 mm 5 mps 716 mmHg 24%
    16:00 +33°C° 0 mm 5 mps 716 mmHg 24%
    17:00 +32°C° 0 mm 5 mps 716 mmHg 25%
    18:00 +30°C° 0 mm 4 mps 716 mmHg 27%
    19:00 +28°C° 0 mm 3 mps 716 mmHg 30%
    20:00 +27°C° 0 mm 3 mps 716 mmHg 33%
    21:00 +26°C° 0 mm 3 mps 716 mmHg 34%
    22:00 +25°C° 0 mm 2 mps 716 mmHg 36%
    23:00 +25°C° 0 mm 2 mps 717 mmHg 37%

    Tomorrow, 20 January, Sunday

    Time Temperature Precipitation Wind Pressure Humidity
    00:00 +24°C° 0 mm 3 mps 716 mmHg 41%
    01:00 +24°C° 0 mm 3 mps 716 mmHg 45%
    02:00 +22°C° 0 mm 3 mps 716 mmHg 50%
    03:00 +22°C° 0 mm 3 mps 716 mmHg 53%
    04:00 +21°C° 0 mm 3 mps 717 mmHg 56%
    05:00 +21°C° 0 mm 3 mps 717 mmHg 59%
    06:00 +21°C° 0 mm 3 mps 718 mmHg 55%
    07:00 +22°C° 0 mm 3 mps 718 mmHg 51%
    08:00 +24°C° 0 mm 3 mps 719 mmHg 46%
    09:00 +26°C° 0 mm 3 mps 719 mmHg 41%
    10:00 +28°C° 0 mm 4 mps 719 mmHg 35%
    11:00 +29°C° 0 mm 4 mps 719 mmHg 30%
    12:00 +30°C° 0 mm 4 mps 719 mmHg 27%
    13:00 +32°C° 0 mm 4 mps 718 mmHg 24%
    14:00 +33°C° 0 mm 4 mps 717 mmHg 21%
    15:00 +33°C° 0 mm 4 mps 717 mmHg 20%
    16:00 +32°C° 0 mm 4 mps 717 mmHg 20%
    17:00 +31°C° 0 mm 3 mps 716 mmHg 20%
    18:00 +30°C° 0 mm 3 mps 717 mmHg 23%
    19:00 +28°C° 0 mm 3 mps 717 mmHg 26%
    20:00 +26°C° 0 mm 3 mps 717 mmHg 29%
    21:00 +26°C° 0 mm 3 mps 717 mmHg 32%
    22:00 +25°C° 0 mm 3 mps 717 mmHg 35%
    23:00 +25°C° 0 mm 3 mps 717 mmHg 38%

    Day after tomorrow, 21 January, Monday

    Time Temperature Precipitation Wind Pressure Humidity
    00:00 +24°C° 0 mm 3 mps 717 mmHg 43%
    01:00 +24°C° 0 mm 3 mps 717 mmHg 47%
    02:00 +22°C° 0 mm 3 mps 716 mmHg 52%
    03:00 +22°C° 0 mm 3 mps 716 mmHg 56%
    04:00 +21°C° 0 mm 3 mps 716 mmHg 59%
    05:00 +21°C° 0 mm 3 mps 716 mmHg 63%
    06:00 +22°C° 0 mm 3 mps 717 mmHg 60%
    07:00 +22°C° 0 mm 4 mps 718 mmHg 56%
    08:00 +23°C° 0 mm 4 mps 718 mmHg 53%
    09:00 +26°C° 0 mm 4 mps 718 mmHg 44%
    10:00 +28°C° 0 mm 4 mps 718 mmHg 36%
    11:00 +30°C° 0 mm 5 mps 719 mmHg 28%
    12:00 +32°C° 0 mm 4 mps 718 mmHg 24%
    13:00 +32°C° 0 mm 4 mps 717 mmHg 21%
    14:00 +33°C° 0 mm 4 mps 716 mmHg 18%
    15:00 +33°C° 0 mm 4 mps 716 mmHg 18%
    16:00 +31°C° 0 mm 3 mps 715 mmHg 18%
    17:00 +31°C° 0 mm 3 mps 715 mmHg 18%
    18:00 +30°C° 0 mm 3 mps 716 mmHg 20%
    19:00 +28°C° 0 mm 3 mps 716 mmHg 22%
    20:00 +26°C° 0 mm 4 mps 716 mmHg 24%
    21:00 +26°C° 0 mm 4 mps 716 mmHg 28%
    22:00 +25°C° 0 mm 4 mps 716 mmHg 32%
    23:00 +23°C° 0 mm 5 mps 716 mmHg 36%

    22 January, Tuesday

    Time Temperature Precipitation Wind Pressure Humidity
    00:00 +23°C° 0 mm 5 mps 716 mmHg 40%
    01:00 +22°C° 0 mm 5 mps 715 mmHg 44%
    02:00 +21°C° 0 mm 4 mps 715 mmHg 48%
    03:00 +21°C° 0 mm 4 mps 715 mmHg 50%
    04:00 +20°C° 0 mm 3 mps 715 mmHg 52%
    05:00 +20°C° 0 mm 3 mps 715 mmHg 53%
    06:00 +21°C° 0 mm 3 mps 716 mmHg 51%
    07:00 +22°C° 0 mm 3 mps 717 mmHg 49%
    08:00 +23°C° 0 mm 2 mps 718 mmHg 47%
    09:00 +25°C° 0 mm 2 mps 718 mmHg 41%
    10:00 +27°C° 0 mm 2 mps 718 mmHg 35%
    11:00 +29°C° 0 mm 2 mps 718 mmHg 30%
    12:00 +30°C° 0 mm 2 mps 717 mmHg 28%
    13:00 +31°C° 0 mm 1 mps 716 mmHg 25%
    14:00 +30°C° 0 mm 0 mps 715 mmHg 23%
    15:00 +32°C° 0 mm 1 mps 715 mmHg 23%
    16:00 +32°C° 0 mm 1 mps 715 mmHg 22%
    17:00 +32°C° 0 mm 1 mps 715 mmHg 22%
    18:00 +30°C° 0 mm 1 mps 715 mmHg 23%
    19:00 +29°C° 0 mm 2 mps 716 mmHg 24%
    20:00 +27°C° 0 mm 3 mps 717 mmHg 25%
    21:00 +26°C° 0 mm 3 mps 717 mmHg 26%
    22:00 +26°C° 0 mm 3 mps 717 mmHg 27%
    23:00 +25°C° 0 mm 3 mps 717 mmHg 27%

    23 January, Wednesday

    Time Temperature Precipitation Wind Pressure Humidity
    00:00 +24°C° 0 mm 2 mps 716 mmHg 38%
    01:00 +23°C° 0 mm 2 mps 716 mmHg 48%
    02:00 +21°C° 0 mm 2 mps 715 mmHg 59%
    03:00 +22°C° 0 mm 1 mps 715 mmHg 64%
    04:00 +21°C° 0 mm 1 mps 715 mmHg 70%
    05:00 +20°C° 0 mm 1 mps 715 mmHg 75%
    06:00 +19°C° 0 mm 0 mps 716 mmHg 71%
    07:00 +20°C° 0 mm 0 mps 717 mmHg 67%
    08:00 +21°C° 0 mm 0 mps 718 mmHg 62%
    09:00 +23°C° 0 mm 0 mps 718 mmHg 53%
    10:00 +25°C° 0 mm 0 mps 718 mmHg 44%
    11:00 +29°C° 0 mm 1 mps 718 mmHg 35%
    12:00 +30°C° 0 mm 1 mps 717 mmHg 31%
    13:00 +31°C° 0 mm 1 mps 716 mmHg 28%
    14:00 +32°C° 0 mm 1 mps 715 mmHg 25%
    15:00 +32°C° 0 mm 1 mps 715 mmHg 25%
    16:00 +32°C° 0 mm 1 mps 715 mmHg 24%
    17:00 +32°C° 0 mm 1 mps 715 mmHg 24%
    18:00 +30°C° 0 mm 1 mps 715 mmHg 25%
    19:00 +29°C° 0 mm 1 mps 716 mmHg 27%
    20:00 +28°C° 0 mm 2 mps 716 mmHg 29%
    21:00 +27°C° 0 mm 2 mps 716 mmHg 32%
    22:00 +26°C° 0 mm 2 mps 716 mmHg 35%
    23:00 +26°C° 0 mm 3 mps 716 mmHg 38%

    24 January, Thursday

    Time Temperature Precipitation Wind Pressure Humidity
    00:00 +25°C° 0 mm 3 mps 716 mmHg 42%
    01:00 +24°C° 0 mm 3 mps 716 mmHg 45%
    02:00 +24°C° 0 mm 3 mps 715 mmHg 49%
    03:00 +22°C° 0 mm 3 mps 715 mmHg 53%
    04:00 +23°C° 0 mm 2 mps 716 mmHg 56%
    05:00 +21°C° 0 mm 2 mps 716 mmHg 60%
    06:00 +23°C° 0 mm 2 mps 716 mmHg 58%
    07:00 +24°C° 0 mm 3 mps 717 mmHg 57%
    08:00 +25°C° 0 mm 3 mps 718 mmHg 55%
    09:00 +27°C° 0 mm 4 mps 718 mmHg 49%
    10:00 +29°C° 0 mm 4 mps 718 mmHg 43%
    11:00 +30°C° 0 mm 4 mps 718 mmHg 37%
    12:00 +32°C° 0 mm 4 mps 717 mmHg 34%
    13:00 +33°C° 0 mm 3 mps 716 mmHg 31%
    14:00 +34°C° 0 mm 3 mps 715 mmHg 29%
    15:00 +33°C° 0 mm 3 mps 715 mmHg 29%
    16:00 +33°C° 0 mm 3 mps 715 mmHg 28%
    17:00 +32°C° 0 mm 2 mps 714 mmHg 28%
    18:00 +33°C° 0 mm 3 mps 715 mmHg 29%
    19:00 +31°C° 0 mm 3 mps 715 mmHg 30%
    20:00 +30°C° 0 mm 4 mps 716 mmHg 31%
    21:00 +30°C° 0 mm 4 mps 716 mmHg 33%
    22:00 +29°C° 0 mm 5 mps 716 mmHg 35%
    23:00 +29°C° 0 mm 5 mps 716 mmHg 36%
    Show more